Weather reports worldwide

Advertisment
Kilis, Turkey (17262): temperature & dewpoint: 17.04.2019 20:00:00 - 23.04.2019 20:00:00 (EEST)Kilis, Turkey (17262): wind speed: 17.04.2019 20:00:00 - 23.04.2019 20:00:00 (EEST)Kilis, Turkey (17262): wind direction: 17.04.2019 20:00:00 - 23.04.2019 20:00:00 (EEST)Kilis, Turkey (17262): reduced air pressure: 17.04.2019 20:00:00 - 23.04.2019 20:00:00 (EEST)Kilis, Turkey (17262): visibility: 17.04.2019 20:00:00 - 23.04.2019 20:00:00 (EEST)
Date & Time tt [°C] td [°C] ff [km/h] ff [kn] dd ppp [hPa] vv [km]
23.04.2019 20:00:00 - - - - - - -
23.04.2019 19:00:00 16,5 -1,8 4 2 WNW 1023,7 20
23.04.2019 18:00:00 17,7 -1,3 5 3 W 1023,6 20
23.04.2019 17:00:00 18,5 -1,5 5 3 W 1023,0 20
23.04.2019 16:00:00 17,9 -1,1 4 2 N 1023,1 20
23.04.2019 15:00:00 17,6 -1,4 5 3 NW 1023,0 20
23.04.2019 14:00:00 17,0 -0,1 2 1 N 1023,3 20
23.04.2019 13:00:00 17,8 -2,6 9 5 W 1023,2 20
23.04.2019 12:00:00 16,9 -2,5 8 4 W 1023,2 20
23.04.2019 11:00:00 16,2 -1,9 5 3 W 1022,9 20
23.04.2019 10:00:00 14,7 -2,6 5 3 WNW 1022,5 20
23.04.2019 09:00:00 12,7 -2,2 8 4 WNW 1021,8 20
23.04.2019 08:00:00 - - - - - - -
23.04.2019 07:00:00 - - - - - - -
23.04.2019 06:00:00 8,0 -2,6 5 3 WNW 1020,0 20
23.04.2019 05:00:00 - - - - - - -
23.04.2019 04:00:00 - - - - - - -
23.04.2019 03:00:00 7,6 -0,7 5 3 W 1018,4 20
23.04.2019 02:00:00 - - - - - - -
23.04.2019 01:00:00 - - - - - - -
23.04.2019 00:00:00 7,9 1,7 4 2 WSW 1018,3 20
22.04.2019 23:00:00 - - - - - - -
22.04.2019 22:00:00 - - - - - - -
22.04.2019 21:00:00 11,0 0,5 8 4 W 1016,6 20
22.04.2019 20:00:00 11,8 0,1 11 6 W 1015,8 20
22.04.2019 19:00:00 13,3 -1,8 13 7 W 1014,9 20
22.04.2019 18:00:00 13,8 -1,6 9 5 W 1013,9 20
22.04.2019 17:00:00 14,3 -2,0 5 3 W 1013,3 20
22.04.2019 16:00:00 14,4 -2,0 5 3 W 1013,1 20
22.04.2019 15:00:00 14,8 -2,6 8 4 W 1012,7 20
22.04.2019 14:00:00 14,3 -2,4 4 2 WNW 1012,7 20
22.04.2019 13:00:00 16,3 -1,7 8 4 W 1012,1 20
22.04.2019 12:00:00 15,0 -2,1 8 4 W 1012,1 20
22.04.2019 11:00:00 13,9 -2,0 9 5 W 1011,9 20
22.04.2019 10:00:00 12,1 -3,0 11 6 W 1011,9 20
22.04.2019 09:00:00 10,5 -2,4 11 6 WNW 1011,6 20
22.04.2019 08:00:00 - - - - - - -
22.04.2019 07:00:00 - - - - - - -
22.04.2019 06:00:00 7,0 -1,8 9 5 WNW 1010,5 20
22.04.2019 05:00:00 - - - - - - -
22.04.2019 04:00:00 - - - - - - -
22.04.2019 03:00:00 7,4 -0,4 5 3 WNW 1010,6 20
22.04.2019 02:00:00 - - - - - - -
22.04.2019 01:00:00 - - - - - - -
22.04.2019 00:00:00 7,3 2,5 4 2 WNW 1010,9 20
21.04.2019 23:00:00 - - - - - - -
21.04.2019 22:00:00 - - - - - - -
21.04.2019 21:00:00 8,5 1,2 8 4 W 1011,2 20
21.04.2019 20:00:00 9,5 0,2 9 5 W 1010,7 20
21.04.2019 19:00:00 9,6 0,2 8 4 W 1010,3 20
21.04.2019 18:00:00 10,1 1,1 9 5 WNW 1010,6 20
21.04.2019 17:00:00 10,4 0,8 9 5 WNW 1010,6 20
21.04.2019 16:00:00 9,9 2,3 8 4 WNW 1010,3 20
21.04.2019 15:00:00 10,3 3,4 8 4 NE 1010,1 20
21.04.2019 14:00:00 10,2 3,9 5 3 NE 1010,2 20
21.04.2019 13:00:00 9,5 5,0 8 4 NNE 1010,4 20
21.04.2019 12:00:00 10,5 6,8 13 7 ENE 1010,2 20
21.04.2019 11:00:00 8,2 4,1 8 4 E 1010,8 20
21.04.2019 10:00:00 7,5 4,5 4 2 NE 1010,7 20
21.04.2019 09:00:00 6,2 3,3 2 1 WNW 1010,4 20
21.04.2019 08:00:00 - - - - - - -
21.04.2019 07:00:00 - - - - - - -
21.04.2019 06:00:00 5,4 4,2 4 2 WNW 1010,4 20
21.04.2019 05:00:00 - - - - - - -
21.04.2019 04:00:00 - - - - - - -
21.04.2019 03:00:00 7,2 5,3 0 0 N 1011,0 20
21.04.2019 02:00:00 - - - - - - -
21.04.2019 01:00:00 - - - - - - -
21.04.2019 00:00:00 7,6 4,0 0 0 N 1012,4 20
20.04.2019 23:00:00 - - - - - - -
20.04.2019 22:00:00 - - - - - - -
20.04.2019 21:00:00 8,8 3,9 2 1 WSW 1013,0 20
20.04.2019 20:00:00 9,4 5,4 5 3 SW 1012,9 20
20.04.2019 19:00:00 10,6 4,6 11 6 WSW 1012,6 20
20.04.2019 18:00:00 11,8 5,8 9 5 WSW 1012,8 20
20.04.2019 17:00:00 11,9 5,4 5 3 SSW 1012,9 20
20.04.2019 16:00:00 9,7 6,8 4 2 ESE 1013,6 20
20.04.2019 15:00:00 10,0 6,1 5 3 SSW 1014,0 15
20.04.2019 14:00:00 12,4 4,8 11 6 SW 1013,3 20
20.04.2019 13:00:00 12,2 5,4 5 3 SSE 1013,2 20
20.04.2019 12:00:00 12,4 3,5 8 4 SSW 1013,9 20
20.04.2019 11:00:00 11,3 6,0 11 6 W 1014,3 20
20.04.2019 10:00:00 12,8 4,2 9 5 WSW 1013,7 20
20.04.2019 09:00:00 12,8 4,5 2 1 WSW 1013,1 20
20.04.2019 08:00:00 - - - - - - -
20.04.2019 07:00:00 - - - - - - -
20.04.2019 06:00:00 8,0 3,0 8 4 WNW 1012,2 20
20.04.2019 05:00:00 - - - - - - -
20.04.2019 04:00:00 - - - - - - -
20.04.2019 03:00:00 8,4 3,6 8 4 WNW 1013,1 20
20.04.2019 02:00:00 - - - - - - -
20.04.2019 01:00:00 - - - - - - -
20.04.2019 00:00:00 9,0 4,4 8 4 W 1013,4 20
19.04.2019 23:00:00 - - - - - - -
19.04.2019 22:00:00 - - - - - - -
19.04.2019 21:00:00 9,0 5,1 5 3 WNW 1013,5 20
19.04.2019 20:00:00 9,4 5,8 8 4 W 1013,4 20
19.04.2019 19:00:00 10,6 6,1 5 3 W 1013,0 20
19.04.2019 18:00:00 10,8 6,5 8 4 W 1012,1 20
19.04.2019 17:00:00 9,5 6,0 9 5 W 1012,9 20
19.04.2019 16:00:00 9,7 5,4 9 5 W 1013,0 20
19.04.2019 15:00:00 9,1 6,9 5 3 W 1013,1 15
19.04.2019 14:00:00 8,7 6,7 8 4 W 1013,5 20
19.04.2019 13:00:00 11,6 7,1 9 5 WSW 1012,8 20
19.04.2019 12:00:00 12,8 4,2 2 1 W 1013,1 20
19.04.2019 11:00:00 12,2 4,6 2 1 S 1013,8 20
19.04.2019 10:00:00 10,8 5,4 4 2 WNW 1014,3 20
19.04.2019 09:00:00 9,3 5,2 8 4 W 1014,0 20
19.04.2019 08:00:00 - - - - - - -
19.04.2019 07:00:00 - - - - - - -
19.04.2019 06:00:00 9,0 6,9 4 2 W 1013,0 20
19.04.2019 05:00:00 - - - - - - -
19.04.2019 04:00:00 - - - - - - -
19.04.2019 03:00:00 8,7 6,3 2 1 WSW 1014,5 20
19.04.2019 02:00:00 - - - - - - -
19.04.2019 01:00:00 - - - - - - -
19.04.2019 00:00:00 9,8 5,9 2 1 WNW 1015,5 20
18.04.2019 23:00:00 - - - - - - -
18.04.2019 22:00:00 - - - - - - -
18.04.2019 21:00:00 11,2 5,0 8 4 W 1015,7 20
18.04.2019 20:00:00 11,7 5,7 8 4 W 1015,2 20
18.04.2019 19:00:00 12,9 4,9 5 3 WSW 1015,2 20
18.04.2019 18:00:00 14,3 3,8 5 3 WSW 1015,4 20
18.04.2019 17:00:00 14,0 3,3 11 6 WSW 1015,5 20
18.04.2019 16:00:00 12,9 6,2 5 3 WSW 1015,8 20
18.04.2019 15:00:00 12,8 4,6 9 5 WSW 1017,0 20
18.04.2019 14:00:00 12,4 4,4 8 4 WNW 1016,7 20
18.04.2019 13:00:00 13,0 6,3 13 7 W 1016,7 20
18.04.2019 12:00:00 15,3 4,7 4 2 SW 1015,9 20
18.04.2019 11:00:00 14,6 6,3 4 2 NW 1016,4 20
18.04.2019 10:00:00 13,6 7,5 4 2 W 1016,3 20
18.04.2019 09:00:00 13,3 8,7 8 4 WSW 1016,3 20
18.04.2019 08:00:00 - - - - - - -
18.04.2019 07:00:00 - - - - - - -
18.04.2019 06:00:00 6,7 4,8 2 1 S 1015,4 20
18.04.2019 05:00:00 - - - - - - -
18.04.2019 04:00:00 - - - - - - -
18.04.2019 03:00:00 8,5 6,5 8 4 W 1014,4 20
18.04.2019 02:00:00 - - - - - - -
18.04.2019 01:00:00 - - - - - - -
18.04.2019 00:00:00 9,8 7,0 8 4 W 1014,3 20
17.04.2019 23:00:00 - - - - - - -
17.04.2019 22:00:00 - - - - - - -
17.04.2019 21:00:00 10,0 7,4 8 4 W 1014,0 20
17.04.2019 20:00:00 10,4 8,1 8 4 W 1013,5 20

tt = temperature
td = dewpoint
ff = wind speed
dd = wind direction
ppp = reduced air pressure
vv = visibility

Next stations